|
ISS - Orbit
|
South Tamworth Observatory;
00:19:31
| Home | Info | Passes |
|
View from above orbital plane
|
View from above satellite
|
Ground track
|
The orbit data is extracted from the following two-line orbital elements,
1 25544U 98067A 13139.84254579 .00058628 00000-0 10127-2 0 8420
2 25544 051.6497 248.8778 0009575 333.0467 172.4170 15.50370723830309
| Epoch (UTC): | 19 May 2013 20:13:15 |
| Eccentricity: | 0.0009575 |
| inclination: | 51.6497° |
| perigee height: | 409 km |
| apogee height: | 422 km |
| right ascension of ascending node: | 248.8778° |
| argument of perigee: | 333.0467° |
| revolutions per day: | 15.50370723 |
| mean anomaly at epoch: | 172.4170° |
| orbit number at epoch: | 83030 |
The dashed part of the orbit path shows where the satellite is in the earth's shadow,
|
|